PDT,Max TemperatureF,Mean TemperatureF,Min TemperatureF,Max Dew PointF,MeanDew PointF,Min DewpointF,Max Humidity, Mean Humidity, Min Humidity, Max Sea Level PressureIn, Mean Sea Level PressureIn, Min Sea Level PressureIn, Max VisibilityMiles, Mean VisibilityMiles, Min VisibilityMiles, Max Wind SpeedMPH, Mean Wind SpeedMPH, Max Gust SpeedMPH,PrecipitationIn, CloudCover, Events, WindDirDegrees
2013-8-1,68,62,57,55,54,52,88,78,60,30.12,30.10,30.08,10,8,5,8,2,,0.00,8,,238
2013-8-2,68,60,53,61,57,54,100,86,64,30.15,30.13,30.11,10,8,4,8,3,,0.00,7,Rain,202
2013-8-3,73,65,57,59,57,55,100,77,57,30.15,30.11,30.06,10,9,5,13,3,16,0.00,6,,18
2013-8-4,84,70,55,64,59,54,100,73,45,30.08,30.02,29.94,10,9,5,12,3,16,0.00,1,,2
2013-8-5,84,68,53,63,57,46,100,74,34,30.06,30.01,29.96,10,8,1,9,2,,0.00,2,,335
2013-8-6,86,67,48,61,54,48,100,72,32,30.05,29.99,29.94,10,9,2,9,2,16,0.00,1,,346
2013-8-7,84,68,53,61,56,52,100,74,37,30.07,30.02,29.97,10,9,5,9,3,,0.00,2,,262
2013-8-8,80,68,57,63,58,54,94,75,51,30.07,30.03,29.97,10,8,2,8,3,16,0.00,4,,262
2013-8-9,78,66,53,63,57,54,100,79,47,29.99,29.95,29.88,10,9,4,7,2,,0.01,2,Rain,321
2013-8-10,77,67,57,63,58,55,100,82,57,30.07,30.01,29.92,10,8,5,9,3,,0.11,5,Rain,227
2013-8-11,73,65,57,59,55,54,88,75,57,30.10,30.08,30.03,10,9,5,6,2,,0.00,8,,242
2013-8-12,75,65,55,57,55,54,94,72,50,30.12,30.08,30.04,10,8,5,9,1,,0.00,5,,314
2013-8-13,80,65,50,59,53,48,100,72,37,30.14,30.06,29.94,10,8,2,6,2,,0.00,2,,208
2013-8-14,82,68,53,64,58,50,100,84,32,29.98,29.97,29.94,10,7,4,10,2,,0.11,2,Rain,252
2013-8-15,69,64,60,66,63,61,100,95,83,30.02,29.98,29.95,10,7,1,5,1,,0.06,6,Rain,345
2013-8-16,84,72,59,64,62,55,100,81,48,30.06,30.01,29.98,10,7,0,9,1,16,0.00,5,Fog,346
2013-8-17,77,67,57,63,58,55,100,78,54,30.12,30.08,30.05,10,9,5,9,2,,0.00,5,,263
2013-8-18,78,64,51,61,57,52,100,79,51,30.16,30.13,30.10,10,8,0,9,1,17,0.00,3,Fog,298
2013-8-19,77,64,50,59,55,50,100,76,47,30.15,30.12,30.09,10,8,1,10,2,16,0.00,3,,258
2013-8-20,78,64,50,54,51,48,100,67,36,30.18,30.13,30.07,10,8,0,14,4,23,0.00,1,Fog,8
2013-8-21,82,65,48,54,49,46,94,58,30,30.09,30.02,29.93,10,9,4,17,5,23,0.00,1,,21
2013-8-22,82,68,53,63,54,50,94,65,42,29.95,29.90,29.84,10,8,5,8,2,,0.00,3,,284
2013-8-23,75,68,60,59,57,54,94,74,50,29.94,29.92,29.90,10,9,3,9,4,,0.00,7,,225
2013-8-24,73,64,55,59,57,54,100,80,50,29.95,29.92,29.89,10,8,3,6,1,,0.04,5,Rain,264
2013-8-25,69,58,48,59,54,48,100,84,60,29.97,29.94,29.91,10,6,0,7,1,,0.00,4,Fog,211
2013-8-26,75,67,59,61,56,50,94,77,44,29.98,29.93,29.90,10,8,5,15,4,22,0.03,6,Rain,196
2013-8-27,80,70,60,64,60,57,94,77,48,29.98,29.90,29.82,10,9,4,8,4,,0.00,5,Rain,206
2013-8-28,80,71,62,64,63,59,100,82,51,29.93,29.89,29.85,10,9,4,7,1,,0.17,6,Rain,266
2013-8-29,75,70,64,68,64,61,100,91,69,30.07,29.94,29.86,10,9,1,14,2,26,0.38,6,Rain,200
2013-8-30,78,68,57,63,59,55,100,77,47,30.17,30.12,30.07,10,9,0,6,2,,0.00,4,Fog-Rain,285
2013-8-31,82,66,50,63,57,50,100,77,42,30.10,29.97,29.85,10,8,0,10,2,,0.00,1,Fog,9